When you browse on this site, cookies collect data to enhance your experience and personalize the content and advertising you see.
Visit our Privacy Policy to learn more. By continuing to use the site, you agree to this use of cookies and data.
  • In Österreich
  • Länderverzeichnis
  • Für 7 Tage
  • Wassertemperatur
  • Satellitenkarten
  • Wetterkarte
  • News
  • Widgets
  • user-avatar
    Anmelden

    Stündliche Wetter Jampil

    Heute, 22 Juli, Montag

    Zeit Temperatur Niederschläge Wind Luftdruck Luftfeuchtigkeit
    00:00 +21°C° 0 mm 0 m/S 752 mmHg 63%
    01:00 +21°C° 0 mm 0 m/S 752 mmHg 64%
    02:00 +22°C° 0 mm 1 m/S 752 mmHg 62%
    03:00 +22°C° 0 mm 1 m/S 752 mmHg 65%
    04:00 +21°C° 0 mm 1 m/S 752 mmHg 68%
    05:00 +21°C° 0 mm 1 m/S 752 mmHg 71%
    06:00 +21°C° 0 mm 2 m/S 752 mmHg 71%
    07:00 +22°C° 0 mm 3 m/S 753 mmHg 71%
    08:00 +23°C° 0 mm 4 m/S 753 mmHg 72%
    09:00 +25°C° 0 mm 4 m/S 753 mmHg 67%
    10:00 +26°C° 0 mm 4 m/S 753 mmHg 62%
    11:00 +28°C° 0 mm 4 m/S 753 mmHg 58%
    12:00 +28°C° 0 mm 4 m/S 753 mmHg 55%
    13:00 +29°C° 0 mm 4 m/S 753 mmHg 52%
    14:00 +30°C° 0 mm 4 m/S 753 mmHg 50%
    15:00 +29°C° 0 mm 4 m/S 752 mmHg 52%
    16:00 +29°C° 0 mm 4 m/S 752 mmHg 54%
    17:00 +28°C° 0 mm 5 m/S 752 mmHg 56%
    18:00 +27°C° 0 mm 4 m/S 752 mmHg 63%
    19:00 +25°C° 0 mm 3 m/S 752 mmHg 70%
    20:00 +23°C° 0 mm 2 m/S 752 mmHg 77%
    21:00 +21°C° 0 mm 2 m/S 752 mmHg 81%
    22:00 +21°C° 0 mm 2 m/S 752 mmHg 84%
    23:00 +20°C° 0 mm 2 m/S 752 mmHg 88%

    Morgen, 23 Juli, Dienstag

    Zeit Temperatur Niederschläge Wind Luftdruck Luftfeuchtigkeit
    00:00 +19°C° 0 mm 2 m/S 752 mmHg 89%
    01:00 +18°C° 0 mm 2 m/S 752 mmHg 91%
    02:00 +18°C° 0 mm 2 m/S 752 mmHg 92%
    03:00 +17°C° 0 mm 2 m/S 752 mmHg 90%
    04:00 +17°C° 0 mm 2 m/S 752 mmHg 88%
    05:00 +17°C° 0 mm 2 m/S 752 mmHg 86%
    06:00 +18°C° 0 mm 2 m/S 751 mmHg 81%
    07:00 +19°C° 0 mm 3 m/S 751 mmHg 76%
    08:00 +20°C° 0 mm 4 m/S 751 mmHg 71%
    09:00 +21°C° 0.1 mm 5 m/S 751 mmHg 66%
    10:00 +21°C° 0.1 mm 5 m/S 751 mmHg 61%
    11:00 +22°C° 0.1 mm 6 m/S 751 mmHg 56%
    12:00 +22°C° 0 mm 6 m/S 751 mmHg 55%
    13:00 +22°C° 0 mm 5 m/S 751 mmHg 55%
    14:00 +22°C° 0 mm 4 m/S 751 mmHg 54%
    15:00 +23°C° 0.2 mm 4 m/S 750 mmHg 55%
    16:00 +23°C° 0.2 mm 5 m/S 750 mmHg 56%
    17:00 +23°C° 0.2 mm 5 m/S 750 mmHg 57%
    18:00 +22°C° 0.1 mm 4 m/S 750 mmHg 63%
    19:00 +20°C° 0.1 mm 3 m/S 750 mmHg 69%
    20:00 +19°C° 0.1 mm 3 m/S 750 mmHg 75%
    21:00 +18°C° 0 mm 3 m/S 750 mmHg 79%
    22:00 +17°C° 0 mm 3 m/S 750 mmHg 83%
    23:00 +16°C° 0 mm 3 m/S 750 mmHg 88%

    übermorgen, 24 Juli, Mittwoch

    Zeit Temperatur Niederschläge Wind Luftdruck Luftfeuchtigkeit
    00:00 +16°C° 0 mm 3 m/S 750 mmHg 89%
    01:00 +14°C° 0 mm 3 m/S 750 mmHg 91%
    02:00 +14°C° 0 mm 3 m/S 750 mmHg 93%
    03:00 +14°C° 0 mm 3 m/S 749 mmHg 94%
    04:00 +14°C° 0 mm 3 m/S 749 mmHg 94%
    05:00 +14°C° 0 mm 3 m/S 749 mmHg 95%
    06:00 +17°C° 0 mm 4 m/S 749 mmHg 88%
    07:00 +17°C° 0 mm 5 m/S 749 mmHg 81%
    08:00 +20°C° 0 mm 5 m/S 749 mmHg 74%
    09:00 +21°C° 0.2 mm 6 m/S 749 mmHg 70%
    10:00 +23°C° 0.2 mm 6 m/S 749 mmHg 66%
    11:00 +24°C° 0.2 mm 7 m/S 749 mmHg 62%
    12:00 +26°C° 0.3 mm 7 m/S 749 mmHg 59%
    13:00 +26°C° 0.3 mm 7 m/S 749 mmHg 57%
    14:00 +27°C° 0.3 mm 7 m/S 749 mmHg 54%
    15:00 +27°C° 0.1 mm 7 m/S 749 mmHg 56%
    16:00 +26°C° 0.1 mm 6 m/S 749 mmHg 57%
    17:00 +26°C° 0.1 mm 6 m/S 749 mmHg 59%
    18:00 +23°C° 0.1 mm 5 m/S 749 mmHg 65%
    19:00 +22°C° 0.1 mm 4 m/S 749 mmHg 71%
    20:00 +20°C° 0.1 mm 3 m/S 749 mmHg 77%
    21:00 +19°C° 0 mm 3 m/S 749 mmHg 80%
    22:00 +19°C° 0 mm 3 m/S 750 mmHg 84%
    23:00 +18°C° 0 mm 3 m/S 750 mmHg 87%

    25 Juli, Donnerstag

    Zeit Temperatur Niederschläge Wind Luftdruck Luftfeuchtigkeit
    00:00 +17°C° 0 mm 3 m/S 750 mmHg 87%
    01:00 +17°C° 0 mm 3 m/S 750 mmHg 87%
    02:00 +16°C° 0 mm 3 m/S 750 mmHg 87%
    03:00 +16°C° 0 mm 3 m/S 750 mmHg 86%
    04:00 +16°C° 0 mm 3 m/S 750 mmHg 86%
    05:00 +14°C° 0 mm 4 m/S 750 mmHg 86%
    06:00 +17°C° 0 mm 4 m/S 750 mmHg 79%
    07:00 +19°C° 0 mm 5 m/S 750 mmHg 72%
    08:00 +21°C° 0 mm 6 m/S 751 mmHg 65%
    09:00 +23°C° 0 mm 6 m/S 751 mmHg 60%
    10:00 +24°C° 0 mm 6 m/S 751 mmHg 54%
    11:00 +26°C° 0 mm 6 m/S 751 mmHg 49%
    12:00 +27°C° 0 mm 6 m/S 751 mmHg 47%
    13:00 +27°C° 0 mm 6 m/S 750 mmHg 46%
    14:00 +28°C° 0 mm 6 m/S 750 mmHg 44%
    15:00 +27°C° 0.1 mm 6 m/S 750 mmHg 46%
    16:00 +27°C° 0.1 mm 6 m/S 750 mmHg 48%
    17:00 +26°C° 0.1 mm 6 m/S 750 mmHg 51%
    18:00 +25°C° 0 mm 5 m/S 750 mmHg 57%
    19:00 +22°C° 0 mm 4 m/S 750 mmHg 63%
    20:00 +20°C° 0 mm 3 m/S 750 mmHg 69%
    21:00 +19°C° 0 mm 3 m/S 750 mmHg 73%
    22:00 +18°C° 0 mm 3 m/S 750 mmHg 76%
    23:00 +18°C° 0 mm 2 m/S 750 mmHg 79%

    26 Juli, Freitag

    Zeit Temperatur Niederschläge Wind Luftdruck Luftfeuchtigkeit
    00:00 +18°C° 0 mm 3 m/S 750 mmHg 79%
    01:00 +18°C° 0 mm 3 m/S 750 mmHg 79%
    02:00 +18°C° 0 mm 4 m/S 749 mmHg 78%
    03:00 +18°C° 0 mm 4 m/S 749 mmHg 82%
    04:00 +17°C° 0 mm 4 m/S 749 mmHg 86%
    05:00 +15°C° 0 mm 4 m/S 749 mmHg 90%
    06:00 +18°C° 0 mm 4 m/S 749 mmHg 85%
    07:00 +19°C° 0 mm 5 m/S 749 mmHg 80%
    08:00 +20°C° 0 mm 6 m/S 749 mmHg 74%
    09:00 +20°C° 0 mm 5 m/S 749 mmHg 73%
    10:00 +21°C° 0 mm 5 m/S 749 mmHg 72%
    11:00 +21°C° 0 mm 5 m/S 749 mmHg 71%
    12:00 +22°C° 0 mm 5 m/S 749 mmHg 68%
    13:00 +23°C° 0 mm 5 m/S 748 mmHg 64%
    14:00 +26°C° 0 mm 5 m/S 748 mmHg 60%
    15:00 +26°C° 0 mm 5 m/S 748 mmHg 60%
    16:00 +26°C° 0 mm 5 m/S 748 mmHg 60%
    17:00 +26°C° 0 mm 5 m/S 748 mmHg 60%
    18:00 +23°C° 0 mm 4 m/S 748 mmHg 67%
    19:00 +22°C° 0 mm 3 m/S 748 mmHg 73%
    20:00 +20°C° 0 mm 3 m/S 748 mmHg 79%
    21:00 +20°C° 0 mm 2 m/S 747 mmHg 83%
    22:00 +19°C° 0 mm 2 m/S 747 mmHg 87%
    23:00 +18°C° 0 mm 2 m/S 747 mmHg 91%

    27 Juli, Samstag

    Zeit Temperatur Niederschläge Wind Luftdruck Luftfeuchtigkeit
    00:00 +18°C° 0 mm 2 m/S 747 mmHg 92%
    01:00 +17°C° 0 mm 2 m/S 747 mmHg 93%
    02:00 +17°C° 0 mm 2 m/S 747 mmHg 95%
    03:00 +17°C° 0 mm 2 m/S 747 mmHg 95%
    04:00 +17°C° 0 mm 3 m/S 747 mmHg 96%
    05:00 +17°C° 0 mm 3 m/S 746 mmHg 97%
    06:00 +18°C° 0 mm 3 m/S 747 mmHg 93%
    07:00 +19°C° 0 mm 4 m/S 747 mmHg 90%
    08:00 +20°C° 0 mm 4 m/S 747 mmHg 87%
    09:00 +21°C° 0 mm 4 m/S 747 mmHg 81%
    10:00 +22°C° 0 mm 5 m/S 747 mmHg 76%
    11:00 +25°C° 0 mm 5 m/S 747 mmHg 70%
    12:00 +26°C° 0 mm 5 m/S 747 mmHg 63%
    13:00 +28°C° 0 mm 4 m/S 747 mmHg 55%
    14:00 +29°C° 0 mm 4 m/S 747 mmHg 48%
    15:00 +29°C° 0.1 mm 4 m/S 747 mmHg 51%
    16:00 +28°C° 0.1 mm 5 m/S 747 mmHg 54%
    17:00 +28°C° 0.1 mm 5 m/S 747 mmHg 57%
    18:00 +26°C° 1 mm 5 m/S 747 mmHg 66%
    19:00 +23°C° 1 mm 4 m/S 747 mmHg 75%
    20:00 +22°C° 1 mm 3 m/S 747 mmHg 84%
    21:00 +21°C° 0.1 mm 3 m/S 747 mmHg 86%
    22:00 +20°C° 0.1 mm 3 m/S 747 mmHg 88%
    23:00 +20°C° 0.1 mm 2 m/S 747 mmHg 91%
    Mehr zeigen